Regional Weather Roundup
Issued by NWS Midland/Odessa, TX

Home | Current Version | Previous Version | Text Only | Print | Product List | Glossary On
Versions: 1 2 3 4 5 6 7 8 9 10 11 12 13 14 15 16 17 18 19 20 21 22 23 24 25 26 27 28 29 30 31 32 33 34 35 36 37 38 39 40 41 42 43 44 45 46 47 48 49 50
000
ASUS44 KMAF 241810
RWRMAF
MIDLAND AREA WEATHER ROUNDUP
NATIONAL WEATHER SERVICE MIDLAND TX
100 PM CDT FRI MAR 24 2017

...IN SOUTHWEST TEXAS AND SOUTHEAST NEW MEXICO...

CITY           SKY/WX    TMP DP  RH WIND       PRES   REMARKS
ALPINE         SUNNY     64  20  18 W28G35    30.13F
ANDREWS        FAIR      66  29  24 W23G37    29.92R
ARTESIA        SUNNY     72  28  20 NW23G35   29.93R
BIG SPRING     SUNNY     69  29  22 W28G33    29.92S
CARLSBAD       SUNNY     70  27  20 W29G39    29.92R
DRYDEN           N/A     76  17  11 W24G37    29.98F
FORT STOCKTON  SUNNY     70  23  17 W28G40    29.99S
GUAD PASS        N/A    N/A N/A N/A MISG        N/A
HOBBS          MOSUNNY   64  27  24 W21G33    29.92R
MARFA          SUNNY     61  20  20 W35G43    30.12R
MIDLAND AIRPK  SUNNY     69  29  22 W23G36    29.92F
MIDLAND INTL   SUNNY     70  27  20 W26G39    29.92S
ODESSA         SUNNY     69  26  20 W26G37    29.93S
PECOS          SUNNY     71  26  19 W28G36    29.98S
PRESIDIO       FAIR      72  18  12 W23G35    30.13S
SEMINOLE       SUNNY     66  29  24 W22G35    29.91S
SNYDER         SUNNY     69  31  24 SW28G37   29.86S
WINK           SUNNY     69  25  19 W28G36    29.93F
$$
...OTHER STATIONS IN TEXAS...

CITY           SKY/WX    TMP DP  RH WIND       PRES   REMARKS
ABILENE        SUNNY     72  30  21 SW18G29   29.85F
AMARILLO       CLOUDY    45  39  79 NW30G43   29.70R WCI  35
AUSTIN         PTSUNNY   76  68  76 S22G28    29.94S
BROWNSVILLE    CLOUDY    82  68  62 S26G37    29.96S
CORPUS CHRISTI CLOUDY    77  70  79 SE25G33   29.96S
DALLAS FTW     PTSUNNY   60  52  74 S12       29.87R
DEL RIO        SUNNY     80  24  12 NW13      29.98S
EL PASO        MOSUNNY   63  23  21 W18G26    30.12S
HOUSTON INT    PTSUNNY   79  62  56 S17G30    30.02F
LUBBOCK        MOSUNNY   66  33  29 W39G48    29.78R
SAN ANGELO     SUNNY     74  25  16 W23G37    29.92S
SAN ANTONIO    PTSUNNY   75  64  68 S14       29.96F
WACO           LGT RAIN  60  57  89 S6        29.93F
WICHITA FALLS  NOT AVBL
$$
...OTHER LOCATIONS IN NEW MEXICO...

CITY           SKY/WX    TMP DP  RH WIND       PRES   REMARKS
ALAMAGORDO     SUNNY     63  23  22 NW16G23   30.08F
ALBUQUERQUE    CLOUDY    57  26  30 N18G30    30.05R
CANNON AFB     PTSUNNY   58  32  36 NW32G51   29.85R
CLOVIS         PTSUNNY   61  32  33 NW32G41   29.84R
HOLLOMAN AFB   SUNNY     60  23  24 NW9       30.12R
ROSWELL        SUNNY     70  26  19 NW30G43   29.96R
RUIDOSO        SUNNY     50  23  34 NW26G39   30.04F
SANTA FE       CLOUDY    51  35  54 N12       30.02R
TRUTH OR CONSE SUNNY     63  22  20 NW24G35   30.09S
TUCUMCARI      MOSUNNY   60  32  34 N41G54    29.85R
$$



USA.gov is the U.S. government's official web portal to all federal, state and local government web resources and services.